Flag for France Weather past 2 weeks in Marseille, France

Now
72 °F

Clear.


Feels Like: 72 °F
Forecast: 68 / 86 °F
Wind: No wind

Location: Marseille / Marignane

Current Time: Aug 29, 2015 at 11:20:09 PM

Latest Report: Aug 29, 2015 at 11:00 PM


Visibility: 10 mi

Pressure: 30.12 "Hg

Humidity: 78%

Dew point: 64 °F

Location of MarseilleLocation

Historic Weather in Marseille — Graph

°F

Marseille temperature yesterday

Maximum temperature yesterday: 84 °F (at 3:30 PM)
Minimum temperature yesterday: 64 °F (at 3:30 AM)
Average temperature yesterday: 74 °F

Past Weeks' High & Low Weather Summary

 TemperatureHumidityPressure
High90 °F (Aug 21, 4:30 PM)100% (Aug 23, 6:30 PM)30.18 "Hg (Aug 23, 6:30 PM)
Low61 °F (Aug 26, 3:00 AM)21% (Aug 19, 6:00 PM)29.71 "Hg (Aug 23, 5:30 PM)
Average74 °F54%29.96 "Hg
* Reported Aug 14 10:00 PM — Aug 29 10:00 PM, Marseille, Weather by CustomWeather, © 2015

Note: Actual official high and low records may vary slightly from our data, if they occured in-between our weather recording intervals... More about our weather records

Advertising

Marseille weather history for previous 24 hours

 ConditionsComfort  
Time TempWeatherWind HumidityBarometerVisibility
10:00 PM
Sat, Aug 29
77 °FClear.No wind57%30.12 "Hg10 mi
9:30 PM77 °FClear.1 mph57%30.12 "Hg10 mi
9:00 PM79 °FSunny.2 mph54%30.12 "Hg10 mi
8:30 PM79 °FSunny.3 mph54%30.12 "Hg10 mi
8:05 PM79 °FSunny.5 mph54%30.09 "Hg10 mi
8:00 PM81 °FSunny.6 mph51%30.09 "Hg10 mi
7:00 PM82 °FSunny.7 mph45%30.09 "Hg10 mi
6:30 PM82 °FSunny.10 mph48%30.12 "Hg10 mi
6:00 PM82 °FSunny.10 mph45%30.12 "Hg10 mi
5:30 PM84 °FSunny.14 mph43%30.12 "Hg10 mi
5:00 PM86 °FSunny.14 mph38%30.12 "Hg10 mi
4:30 PM88 °FPassing clouds.10 mph35%30.12 "HgN/A
4:00 PM86 °FPassing clouds.10 mph38%30.12 "HgN/A
3:30 PM86 °FSunny.12 mph40%30.12 "Hg10 mi
3:00 PM86 °FSunny.13 mph40%30.12 "Hg10 mi
2:30 PM88 °FPassing clouds.14 mph33%30.12 "HgN/A
2:00 PM86 °FSunny.8 mph35%30.12 "Hg10 mi
1:30 PM86 °FSunny.7 mph40%30.15 "Hg10 mi
1:00 PM84 °FSunny.7 mph40%30.15 "Hg10 mi
12:00 PM82 °FSunny.6 mph42%30.18 "Hg10 mi
11:30 AM81 °FSunny.5 mph48%30.18 "Hg10 mi
11:00 AM79 °FSunny.5 mph48%30.18 "Hg10 mi
10:00 AM75 °FSunny.3 mph61%30.15 "Hg10 mi
9:30 AM75 °FSunny.2 mph65%30.15 "Hg10 mi
9:00 AM73 °FSunny.No wind65%30.15 "Hg10 mi
8:00 AM68 °FSunny.3 mph78%30.15 "Hg10 mi
7:30 AM66 °FPassing clouds.6 mph83%30.12 "HgN/A
7:00 AM66 °FClear.3 mph83%30.12 "Hg10 mi
6:00 AM66 °FClear.3 mph83%30.12 "Hg10 mi
5:00 AM66 °FClear.5 mph88%30.12 "Hg10 mi
4:30 AM66 °FClear.6 mph88%30.12 "Hg10 mi
4:00 AM68 °FClear.3 mph83%30.12 "Hg10 mi
3:30 AM68 °FClear.2 mph83%30.12 "Hg10 mi
3:00 AM68 °FClear.2 mph83%30.12 "Hg10 mi
2:30 AM72 °FClear.No wind78%30.12 "Hg10 mi
2:00 AM70 °FClear.No wind83%30.12 "Hg10 mi
1:30 AM70 °FClear.1 mph78%30.12 "Hg10 mi
1:00 AM70 °FClear.2 mph78%30.12 "Hg10 mi
12:00 AM73 °FClear.No wind65%30.12 "Hg10 mi
11:00 PM
Fri, Aug 28
73 °FClear.3 mph69%30.12 "Hg10 mi
Weather by CustomWeather, © 2015

See weather overviewHow to use our weather pages